Lakeville, MN

4:44 AM CST on December 09, 2016 (GMT -0600)
Airlake

Weather History for KLVN - June, 2014

Change the Weather History Date:

Saturday, June 28, 2014

  Actual Average Record
Temperature  
Mean Temperature 74 °F -  
Max Temperature 82 °F 81 °F 96 °F (1961)
Min Temperature 66 °F 59 °F 48 °F (1951)
Cooling Degree Days 9    
Growing Degree Days 24 (Base 50)    
Moisture  
Dew Point 68 °F    
Average Humidity 85    
Maximum Humidity 100    
Minimum Humidity 66    
Precipitation  
Precipitation 0.77 in - - ()
Sea Level Pressure  
Sea Level Pressure 29.75 in    
Wind  
Wind Speed 11 mph (SSE)    
Max Wind Speed 23 mph    
Max Gust Speed 32 mph    
Visibility 10 miles    
Events Rain , Thunderstorm    
Averages and records for this station are not official NWS values.
T = Trace of Precipitation, MM = Missing Value Source: NWS Daily Summary

Daily Weather History Graph

Daily Weather History Graph

Search for Another Location

Airport or City:

Trip Planner

Search our weather history database for the weather conditions in past years. The results will help you decide how hot, cold, wet, or windy it might be!

Date:

Astronomy

Jun. 28, 2014 Rise Set
Actual Time 5:30 AM CDT 9:02 PM CDT
Civil Twilight 4:53 AM CDT 9:39 PM CDT
Nautical Twilight 4:04 AM CDT 10:27 PM CDT
Astronomical Twilight 3:00 AM CDT 11:30 PM CDT
Moon 6:59 AM CDT (6/28) 9:41 PM CDT (6/28)
Length of Visible Light 16h 45m
Length of Day
15h 32m
New Moon, 2% of the Moon is Illuminated
Jun 28
New Moon
Jul 5
First Quarter
Jul 12
Full
Jul 18
Last Quarter
Jul 26
New

Hourly Weather History & Observations

Time (CDT) Temp. Heat Index Dew Point Humidity Pressure Visibility Wind Dir Wind Speed Gust Speed Precip Events Conditions
12:13 AM 71.6 °F - 68.0 °F 88% 29.82 in 10.0 mi South 8.1 mph - N/A   Clear
12:32 AM 71.6 °F - 68.0 °F 88% 29.82 in 10.0 mi SSE 8.1 mph - N/A   Clear
12:53 AM 71.6 °F - 68.0 °F 88% 29.81 in 10.0 mi South 9.2 mph - N/A   Scattered Clouds
1:13 AM 71.6 °F - 68.0 °F 88% 29.80 in 10.0 mi SSE 9.2 mph - N/A   Clear
1:32 AM 71.6 °F - 66.2 °F 83% 29.79 in 10.0 mi SSE 8.1 mph - N/A   Clear
1:53 AM 71.6 °F - 68.0 °F 88% 29.79 in 10.0 mi SSE 8.1 mph - N/A   Clear
2:13 AM 71.6 °F - 68.0 °F 88% 29.78 in 10.0 mi SSE 10.4 mph - N/A   Clear
2:32 AM 71.6 °F - 68.0 °F 88% 29.78 in 10.0 mi SSE 10.4 mph - N/A   Clear
2:53 AM 71.6 °F - 68.0 °F 88% 29.77 in 10.0 mi SSE 10.4 mph 16.1 mph N/A   Clear
3:13 AM 71.6 °F - 68.0 °F 88% 29.77 in 10.0 mi SSE 11.5 mph - N/A   Clear
3:33 AM 71.6 °F - 68.0 °F 88% 29.76 in 10.0 mi SSE 10.4 mph - N/A   Clear
3:53 AM 71.6 °F - 68.0 °F 88% 29.77 in 10.0 mi SSE 6.9 mph - N/A   Clear
4:12 AM 71.6 °F - 68.0 °F 88% 29.77 in 10.0 mi SSE 5.8 mph - N/A   Clear
4:33 AM 71.6 °F - 68.0 °F 88% 29.77 in 10.0 mi SE 8.1 mph - N/A   Clear
4:53 AM 71.6 °F - 68.0 °F 88% 29.77 in 10.0 mi SSE 8.1 mph - N/A   Clear
5:12 AM 71.6 °F - 68.0 °F 88% 29.76 in 10.0 mi SE 6.9 mph - N/A   Clear
5:33 AM 71.6 °F - 66.2 °F 83% 29.77 in 10.0 mi SSE 9.2 mph - N/A   Clear
5:53 AM 71.6 °F - 68.0 °F 88% 29.77 in 10.0 mi SSE 9.2 mph - N/A   Clear
6:12 AM 71.6 °F - 68.0 °F 88% 29.78 in 10.0 mi SSE 11.5 mph 17.3 mph N/A   Clear
6:33 AM 71.6 °F - 68.0 °F 88% 29.79 in 10.0 mi SSE 6.9 mph - N/A   Scattered Clouds
6:53 AM 71.6 °F - 68.0 °F 88% 29.78 in 10.0 mi SE 11.5 mph 17.3 mph N/A   Scattered Clouds
7:13 AM 73.4 °F - 68.0 °F 83% 29.79 in 10.0 mi SSE 12.7 mph 16.1 mph N/A   Mostly Cloudy
7:33 AM 71.6 °F - 68.0 °F 88% 29.79 in 10.0 mi SSE 10.4 mph 18.4 mph N/A   Overcast
7:52 AM 73.4 °F - 68.0 °F 83% 29.78 in 10.0 mi SSE 13.8 mph 17.3 mph N/A   Overcast
8:12 AM 73.4 °F - 68.0 °F 83% 29.77 in 10.0 mi SSE 13.8 mph 21.9 mph N/A   Overcast
8:33 AM 73.4 °F - 68.0 °F 83% 29.77 in 10.0 mi SSE 15.0 mph 20.7 mph N/A   Overcast
8:53 AM 75.2 °F - 69.8 °F 83% 29.77 in 10.0 mi SSE 12.7 mph 20.7 mph N/A   Mostly Cloudy
9:13 AM 75.2 °F - 69.8 °F 83% 29.77 in 10.0 mi SSE 13.8 mph 26.5 mph N/A   Mostly Cloudy
9:33 AM 75.2 °F - 68.0 °F 78% 29.77 in 10.0 mi South 16.1 mph 23.0 mph N/A   Overcast
9:52 AM 75.2 °F - 69.8 °F 83% 29.77 in 10.0 mi SSE 17.3 mph 23.0 mph N/A   Overcast
10:12 AM 77.0 °F - 69.8 °F 78% 29.76 in 10.0 mi SSE 18.4 mph 26.5 mph N/A   Overcast
10:32 AM 77.0 °F - 69.8 °F 78% 29.76 in 10.0 mi SSE 12.7 mph 20.7 mph N/A   Overcast
10:52 AM 78.8 °F - 69.8 °F 74% 29.75 in 7.0 mi SSE 18.4 mph 27.6 mph N/A   Mostly Cloudy
11:13 AM 80.6 °F 83.9 °F 69.8 °F 70% 29.74 in 10.0 mi SSE 17.3 mph 27.6 mph N/A   Mostly Cloudy
11:33 AM 78.8 °F - 69.8 °F 74% 29.75 in 10.0 mi SSE 17.3 mph 28.8 mph N/A   Mostly Cloudy
11:53 AM 80.6 °F 83.9 °F 69.8 °F 70% 29.74 in 10.0 mi SSE 23.0 mph 29.9 mph N/A   Scattered Clouds
12:13 PM 80.6 °F 83.9 °F 69.8 °F 70% 29.75 in 10.0 mi SSE 17.3 mph 24.2 mph N/A   Mostly Cloudy
12:32 PM 78.8 °F - 69.8 °F 74% 29.76 in 10.0 mi SSE 13.8 mph 24.2 mph N/A   Mostly Cloudy
12:52 PM 78.8 °F - 69.8 °F 74% 29.76 in 10.0 mi South 15.0 mph 20.7 mph N/A   Overcast
1:13 PM 78.8 °F - 69.8 °F 74% 29.76 in 10.0 mi SSE 15.0 mph 23.0 mph N/A   Mostly Cloudy
1:33 PM 78.8 °F - 69.8 °F 74% 29.75 in 10.0 mi South 16.1 mph 24.2 mph N/A   Scattered Clouds
1:53 PM 80.6 °F 84.6 °F 71.6 °F 74% 29.74 in 10.0 mi SSE 12.7 mph 21.9 mph N/A   Scattered Clouds
2:13 PM 82.4 °F 87.2 °F 71.6 °F 70% 29.73 in 10.0 mi SSE 15.0 mph 21.9 mph N/A   Scattered Clouds
2:32 PM 82.4 °F 86.3 °F 69.8 °F 66% 29.72 in 10.0 mi South 16.1 mph 26.5 mph N/A   Scattered Clouds
3:12 PM 78.8 °F - 73.4 °F 83% 29.72 in 10.0 mi South 11.5 mph 16.1 mph N/A Thunderstorm Scattered Clouds
3:33 PM 80.6 °F 84.6 °F 71.6 °F 74% 29.70 in 10.0 mi South 15.0 mph 19.6 mph N/A   Scattered Clouds
3:53 PM 78.8 °F - 71.6 °F 78% 29.69 in 2.5 mi SSE 16.1 mph 26.5 mph 0.14 in Rain , Thunderstorm Heavy Thunderstorms and Rain
4:13 PM 75.2 °F - 71.6 °F 89% 29.69 in 10.0 mi SSW 5.8 mph - 0.01 in Rain , Thunderstorm Light Thunderstorms and Rain
4:32 PM 75.2 °F - 69.8 °F 83% 29.72 in 10.0 mi WSW 13.8 mph 24.2 mph 0.01 in Rain , Thunderstorm Light Thunderstorms and Rain
4:52 PM 66.2 °F - 64.4 °F 94% 29.73 in 1.0 mi WSW 13.8 mph 32.2 mph 0.41 in Rain , Thunderstorm Heavy Thunderstorms and Rain
5:13 PM 66.2 °F - 64.4 °F 94% 29.71 in 7.0 mi SSW 9.2 mph 17.3 mph 0.07 in Rain , Thunderstorm Rain
5:32 PM 66.2 °F - 64.4 °F 94% 29.71 in 7.0 mi South 12.7 mph 18.4 mph 0.12 in Rain Rain
5:53 PM 66.2 °F - 64.4 °F 94% 29.69 in 10.0 mi South 12.7 mph - 0.15 in Rain Light Rain
6:13 PM 66.2 °F - 64.4 °F 94% 29.68 in 10.0 mi SSW 11.5 mph 21.9 mph N/A Rain , Thunderstorm Light Thunderstorms and Rain
6:32 PM 66.2 °F - 64.4 °F 94% 29.69 in 10.0 mi SE 4.6 mph - 0.01 in Rain , Thunderstorm Light Thunderstorms and Rain
6:53 PM 66.2 °F - 66.2 °F 100% 29.71 in 10.0 mi South 10.4 mph - 0.04 in Rain , Thunderstorm Light Thunderstorms and Rain
7:13 PM 68.0 °F - 66.2 °F 94% 29.71 in 10.0 mi South 8.1 mph - 0.02 in Rain Light Rain
7:32 PM 68.0 °F - 66.2 °F 94% 29.69 in 10.0 mi South 4.6 mph - 0.03 in Rain Light Rain
7:53 PM 68.0 °F - 66.2 °F 94% 29.69 in 10.0 mi South 9.2 mph - 0.03 in Rain Light Rain
8:13 PM 68.0 °F - 66.2 °F 94% 29.67 in 10.0 mi South 9.2 mph - N/A   Clear
8:33 PM 66.2 °F - 64.4 °F 94% 29.69 in 10.0 mi South 10.4 mph 17.3 mph N/A   Clear
8:53 PM 68.0 °F - 64.4 °F 88% 29.71 in 10.0 mi South 8.1 mph - N/A   Clear
9:12 PM 66.2 °F - 64.4 °F 94% 29.72 in 10.0 mi South 10.4 mph - N/A   Clear
9:33 PM 66.2 °F - 64.4 °F 94% 29.73 in 10.0 mi South 10.4 mph 17.3 mph N/A   Clear
9:53 PM 66.2 °F - 64.4 °F 94% 29.74 in 10.0 mi South 11.5 mph - N/A   Clear
10:12 PM 68.0 °F - 64.4 °F 88% 29.73 in 10.0 mi South 10.4 mph 19.6 mph N/A   Clear
10:33 PM 68.0 °F - 64.4 °F 88% 29.73 in 10.0 mi South 9.2 mph 18.4 mph N/A   Clear
10:53 PM 68.0 °F - 64.4 °F 88% 29.73 in 10.0 mi South 10.4 mph - N/A   Clear
11:12 PM 66.2 °F - 64.4 °F 94% 29.73 in 10.0 mi South 6.9 mph - N/A   Scattered Clouds
11:33 PM 66.2 °F - 64.4 °F 94% 29.73 in 10.0 mi SSW 10.4 mph - N/A   Scattered Clouds
11:53 PM 68.0 °F - 66.2 °F 94% 29.74 in 10.0 mi South 8.1 mph - N/A   Mostly Cloudy